Notices

What's New in latest Release from April 7th, 2021:

- Updated Glossary, including Speed of Maximum Gust, and Total Hourly Precipitation

- Updated national and regional climate services offices contacts and prices information

- Addition of station inventory lists for 1981-2010, 1971-2000, and 1961-1990 Normals.

If you haven't already, please take our survey and provide feedback about our website: https://eccc.sondage-survey.ca/f/LanguageSelection.aspx?s=442ca660-fcf1-47c0-95a9-59707d6fd709

Hourly Data Report for July 05, 2016

TORONTO CITY
ONTARIO

43°40'00.000" N
79°24'00.000" W
112.50 m
6158355
71508
XTO

Download Data

Hourly Data (July 2016)
Hourly Data Report for July 5, 2016
TIME
LST
Temp Definition
°C
Dew Point Definition
°C
Rel Hum Definition
%
Precip. Amount Definition
mm

Wind Dir Definition
10's deg

Wind Spd Definition
km/h
Visibility Definition
km
Stn Press Definition
kPa
Hmdx Definition


Wind Chill Definition


Weather Definition


00:00 22.2 8.9 43 0.0 LegendMM LegendMM   99.61     LegendNANA
01:00 21.8 10.5 49 0.0 LegendMM LegendMM   99.62     LegendNANA
02:00 22.0 9.7 46 0.0 LegendMM LegendMM   99.58     LegendNANA
03:00 21.8 10.4 48 0.0 LegendMM LegendMM   99.56     LegendNANA
04:00 20.6 10.2 51 0.0 LegendMM LegendMM   99.51     LegendNANA
05:00 20.8 10.5 52 0.0 LegendMM LegendMM   99.55     LegendNANA
06:00 21.0 9.7 49 0.0 LegendMM LegendMM   99.59     LegendNANA
07:00 22.4 9.4 43 0.0 LegendMM LegendMM   99.61     LegendNANA
08:00 25.3 9.5 37 0.0 LegendMM LegendMM   99.63 26   LegendNANA
09:00 26.1 11.4 40 0.0 LegendMM LegendMM   99.65 28   LegendNANA
10:00 27.6 12.6 39 0.0 LegendMM LegendMM   99.65 30   LegendNANA
11:00 27.2 13.1 42 0.0 LegendMM LegendMM   99.64 30   LegendNANA
12:00 27.9 14.1 43 0.0 LegendMM LegendMM   99.64 31   LegendNANA
13:00 29.1 13.2 38 0.0 LegendMM LegendMM   99.61 32   LegendNANA
14:00 28.6 14.3 42 0.0 LegendMM LegendMM   99.58 32   LegendNANA
15:00 27.2 14.4 46 0.0 LegendMM LegendMM   99.58 31   LegendNANA
16:00 28.0 15.9 48 0.0 LegendMM LegendMM   99.55 33   LegendNANA
17:00 29.2 16.4 46 0.0 LegendMM LegendMM   99.54 34   LegendNANA
18:00 30.1 14.5 39 0.0 LegendMM LegendMM   99.56 34   LegendNANA
19:00 28.8 14.5 42 0.0 LegendMM LegendMM   99.60 32   LegendNANA
20:00 27.5 14.0 44 0.0 LegendMM LegendMM   99.63 31   LegendNANA
21:00 26.5 14.3 47 0.0 LegendMM LegendMM   99.70 30   LegendNANA
22:00 24.8 14.5 53 0.0 LegendMM LegendMM   99.72 28   LegendNANA
23:00 23.6 14.7 57 0.0 LegendMM LegendMM   99.70 27   LegendNANA

Notes on Data Quality.

Legend

  • E = Estimated
  • M = Missing
  • NA = Not Available*
  • [empty] = Indicates an unobserved value
Date modified: